Location: Downe
(51.3167°N, 0.0500°E)
Time: 08:44:01
(UTC+00:00)

BREEZE-M DEB (TANK) - Pass Details

Date: 17 November 2019
Orbit: 314 x 16427 km, 49.5° (Epoch: 05 December)

Event Time Altitude Azimuth Distance (km) Brightness Sun altitude
Exits shadow 05:50:43 16° 286° (WNW) 4,851 6.4 -13.7°
Maximum altitude 05:59:10 36° 231° (SW) 1,704 4.5 -12.5°
Drops below altitude 10° 06:03:07 10° 162° (SSE) 2,023 5.7 -11.9°
Sets 06:04:37 0° 152° (SSE) 2,589 6.5 -11.6°
